User: anonymous   Login
Location: UBC Liquid-Mirror Observatory
(49.2876°N, 122.5728°W)
Time: 19:46:53
(UTC-07:00)
Language:

KITSAT 1 - Orbit

View from above orbital plane
View from above orbital plane
View from above satellite
View from above satellite

Ground track
Ground track

The orbit data is extracted from the following two-line orbital elements,

1 22077U 92052B   17293.44709519 -.00000078  00000-0 -65283-4 0  9992
2 22077  66.0854  64.1751 0014094 295.0034 123.9254 12.86519989183505
Epoch (UTC): 20 October 2017 10:43:49
Eccentricity: 0.0014094
inclination: 66.0854°
perigee height: 1304 km
apogee height: 1326 km
right ascension of ascending node: 64.1751°
argument of perigee: 295.0034°
revolutions per day: 12.86519989
mean anomaly at epoch: 123.9254°
orbit number at epoch: 18350

The dashed part of the orbit path shows where the satellite is in the earth's shadow,  

DLR